{"data":{"norad_id":60749,"epoch":"2026-09-22T23:16:38.407008Z","epoch_age_seconds":78145,"freshness":"FRESH","line1":"1 60749U 24153E   26265.96988897  .00011676  00000+0  41571-3 0  9997","line2":"2 60749  97.6829  46.2204 0000633 200.6428 159.4786 15.29116465114760","mean_motion":15.29116465,"eccentricity":6.33e-5,"inclination_deg":97.6829,"raan_deg":46.2204,"arg_perigee_deg":200.6428,"mean_anomaly_deg":159.4786,"bstar":0.00041571,"rev_number":11476,"period_min":94.172028943525,"perigee_km":478.0181977876,"apogee_km":478.88624198284,"semimajor_km":6856.5892198852,"source":"CELESTRAK","updated_at":"2026-09-23T09:00:20.718713Z"}}